VIR658 DGAA-EGLL

Flight info

Callsign VIR658
Flight time N/A
Altitude 37000
Route LITEX1D LITEX DCT KILMO UB726 BATIA DCT IPUTA DCT ABALA DCT MIGNI DCT EREBO UA604 TMS UA615 GHA UB726 BSA UJ66 ALR UG30 SADAF DCT SURIB DCT INSUB DCT RONDU DCT IZA DCT OKITI DCT GODOX DCT EPAMA DCT MARTA DCT EBROX DCT UMURE DCT XIKEN DCT KARES DCT ARBEK DCT REBUL DCT USKAR DCT MOPAS DCT GIROM DCT GONUP DCT MANAK DCT EPAPU DCT RINSO DCT EKRAS DCT REVTU DCT BOLRO UP87 ROXOG ROXOG1H
Aircraft A343/H-SDE2E3FGHIJ4J5M1RWXY/LB1D1

Departure

Time 2026-04-21 18:46
Airport Kotoka International Airport (DGAA)

Arrival

Time N/A
Airport London Heathrow Airport (EGLL)
Time Latitude Longitude Altitude Speed Heading
2026-04-21 17:42 5.60401 -0.17085 222 ft 0 kts 291°
2026-04-21 17:43 5.60401 -0.17084 222 ft 0 kts 291°
2026-04-21 17:58 5.60401 -0.17083 222 ft 0 kts 291°
2026-04-21 18:14 5.60400 -0.17083 222 ft 0 kts 290°
2026-04-21 18:14 5.60400 -0.17082 222 ft 0 kts 290°
2026-04-21 18:31 5.60400 -0.17081 222 ft 0 kts 290°
2026-04-21 18:34 5.60398 -0.17076 226 ft 4 kts 291°
2026-04-21 18:35 5.60391 -0.17059 222 ft 4 kts 293°
2026-04-21 18:35 5.60377 -0.17031 228 ft 3 kts 312°
2026-04-21 18:35 5.60357 -0.17016 221 ft 4 kts 344°
2026-04-21 18:35 5.60331 -0.17013 222 ft 4 kts
2026-04-21 18:36 5.60305 -0.17020 229 ft 4 kts 21°
2026-04-21 18:36 5.60297 -0.17023 225 ft 1 kts 22°
2026-04-21 18:39 5.60298 -0.17023 217 ft 1 kts 22°
2026-04-21 18:39 5.60323 -0.17012 225 ft 4 kts 22°
2026-04-21 18:39 5.60346 -0.17003 222 ft 3 kts 22°
2026-04-21 18:40 5.60364 -0.16996 227 ft 6 kts 23°
2026-04-21 18:40 5.60432 -0.16967 222 ft 12 kts 22°
2026-04-21 18:40 5.60488 -0.16944 225 ft 14 kts 22°
2026-04-21 18:40 5.60603 -0.16897 225 ft 14 kts 21°
2026-04-21 18:41 5.60701 -0.16859 227 ft 16 kts 21°
2026-04-21 18:41 5.60815 -0.16811 227 ft 19 kts 24°
2026-04-21 18:41 5.60945 -0.16757 228 ft 21 kts 22°
2026-04-21 18:41 5.61092 -0.16695 225 ft 25 kts 22°
2026-04-21 18:42 5.61250 -0.16630 230 ft 25 kts 22°
2026-04-21 18:42 5.61395 -0.16571 225 ft 21 kts 22°
2026-04-21 18:42 5.61499 -0.16527 221 ft 16 kts 22°
2026-04-21 18:42 5.61589 -0.16485 223 ft 8 kts 36°
2026-04-21 18:43 5.61611 -0.16453 218 ft 1 kts 66°
2026-04-21 18:43 5.61612 -0.16451 218 ft 1 kts 69°
2026-04-21 18:43 5.61612 -0.16450 218 ft 1 kts 69°
2026-04-21 18:43 5.61614 -0.16415 219 ft 8 kts 95°
2026-04-21 18:44 5.61587 -0.16346 223 ft 13 kts 128°
2026-04-21 18:44 5.61517 -0.16320 220 ft 10 kts 183°
2026-04-21 18:44 5.61494 -0.16325 222 ft 1 kts 195°
2026-04-21 18:44 5.61494 -0.16326 222 ft 0 kts 196°
2026-04-21 18:45 5.61460 -0.16336 225 ft 22 kts 198°
2026-04-21 18:45 5.61142 -0.16460 227 ft 74 kts 203°
2026-04-21 18:45 5.60526 -0.16717 229 ft 117 kts 202°
2026-04-21 18:45 5.59650 -0.17075 240 ft 152 kts 200°
2026-04-21 18:46 5.58626 -0.17368 554 ft 152 kts 172°
2026-04-21 18:46 5.57782 -0.16851 955 ft 152 kts 119°
2026-04-21 18:46 5.57611 -0.15730 1187 ft 172 kts 90°
2026-04-21 18:46 5.57613 -0.14922 1385 ft 181 kts 98°
2026-04-21 18:47 5.57509 -0.13567 1542 ft 210 kts 98°
2026-04-21 18:47 5.57397 -0.12005 1817 ft 237 kts 96°
2026-04-21 18:47 5.57415 -0.10290 2300 ft 255 kts 81°
2026-04-21 18:47 5.58245 -0.08706 2992 ft 264 kts 45°
2026-04-21 18:48 5.59833 -0.07772 3799 ft 267 kts 23°
2026-04-21 18:48 5.61571 -0.07114 4642 ft 267 kts 22°
2026-04-21 18:48 5.63314 -0.06459 5432 ft 268 kts 23°
2026-04-21 18:48 5.65055 -0.05780 6212 ft 270 kts 24°
2026-04-21 18:49 5.66807 -0.05080 6937 ft 272 kts 25°
2026-04-21 18:49 5.68566 -0.04367 7684 ft 273 kts 26°
2026-04-21 18:49 5.69757 -0.03880 8162 ft 275 kts 26°
2026-04-21 18:49 5.72144 -0.02902 9123 ft 279 kts 26°
2026-04-21 18:50 5.73923 -0.02171 9848 ft 281 kts 26°
2026-04-21 18:50 5.75789 -0.01402 10306 ft 294 kts 26°
2026-04-21 18:50 5.77708 -0.00608 10556 ft 311 kts 26°
2026-04-21 18:50 5.79767 0.00243 10801 ft 328 kts 26°
2026-04-21 18:51 5.81933 0.01135 11036 ft 344 kts 26°
2026-04-21 18:51 5.84226 0.02080 11262 ft 359 kts 25°
2026-04-21 18:51 5.86577 0.03047 11555 ft 370 kts 25°
2026-04-21 18:51 5.88978 0.04031 11976 ft 376 kts 25°
2026-04-21 18:52 5.91431 0.04990 12432 ft 382 kts 21°
2026-04-21 18:52 5.94000 0.05595 12944 ft 388 kts 10°
2026-04-21 18:52 5.96724 0.05636 13420 ft 397 kts 356°
2026-04-21 18:52 5.99465 0.05132 13898 ft 403 kts 349°
2026-04-21 18:53 6.02199 0.04462 14353 ft 406 kts 348°
2026-04-21 18:53 6.04947 0.03774 14800 ft 408 kts 348°
2026-04-21 18:53 6.07715 0.03087 15268 ft 411 kts 348°
2026-04-21 18:53 6.10498 0.02401 15731 ft 414 kts 348°
2026-04-21 18:54 6.13302 0.01714 16194 ft 416 kts 348°
2026-04-21 18:54 6.16127 0.01024 16681 ft 419 kts 348°
2026-04-21 18:54 6.18969 0.00329 17161 ft 421 kts 348°
2026-04-21 18:54 6.21830 -0.00368 17654 ft 424 kts 347°
2026-04-21 18:55 6.23732 -0.00832 17959 ft 426 kts 347°
2026-04-21 18:55 6.27601 -0.01776 18549 ft 430 kts 347°
2026-04-21 18:55 6.30519 -0.02488 18958 ft 433 kts 347°
2026-04-21 18:55 6.33449 -0.03202 19369 ft 435 kts 347°
2026-04-21 18:56 6.36405 -0.03923 19751 ft 439 kts 347°
2026-04-21 18:56 6.39384 -0.04649 20132 ft 442 kts 347°
2026-04-21 18:56 6.42375 -0.05379 20532 ft 444 kts 347°
2026-04-21 18:56 6.45389 -0.06115 20904 ft 447 kts 347°
2026-04-21 18:57 6.48425 -0.06855 21271 ft 450 kts 347°
2026-04-21 18:57 6.51472 -0.07599 21682 ft 451 kts 346°
2026-04-21 18:57 6.54533 -0.08346 22019 ft 455 kts 346°
2026-04-21 18:57 6.57621 -0.09089 22355 ft 458 kts 347°
2026-04-21 18:58 6.60775 -0.09594 22719 ft 460 kts 355°
2026-04-21 18:58 6.63982 -0.09615 23061 ft 463 kts
2026-04-21 18:58 6.67169 -0.09096 23371 ft 466 kts 14°
2026-04-21 18:58 6.70268 -0.08132 23691 ft 468 kts 19°
2026-04-21 18:59 6.73334 -0.07013 24011 ft 468 kts 20°
2026-04-21 18:59 6.76370 -0.05831 24383 ft 468 kts 21°
2026-04-21 18:59 6.79403 -0.04623 24741 ft 469 kts 21°
2026-04-21 18:59 6.82434 -0.03415 25062 ft 470 kts 21°
2026-04-21 19:00 6.85483 -0.02210 25355 ft 471 kts 20°
2026-04-21 19:00 6.88540 -0.01013 25704 ft 472 kts 20°
2026-04-21 19:00 6.91602 0.00177 26025 ft 473 kts 20°
2026-04-21 19:00 6.94680 0.01368 26343 ft 474 kts 20°
2026-04-21 19:01 6.97755 0.02555 26660 ft 475 kts 19°
2026-04-21 19:01 7.00845 0.03747 26963 ft 476 kts 19°
2026-04-21 19:01 7.03942 0.04943 27278 ft 477 kts 19°
2026-04-21 19:01 7.07047 0.06142 27574 ft 479 kts 19°
2026-04-21 19:02 7.10157 0.07343 27881 ft 480 kts 19°
2026-04-21 19:02 7.13280 0.08550 28176 ft 481 kts 19°
2026-04-21 19:02 7.16404 0.09758 28461 ft 482 kts 19°
2026-04-21 19:02 7.19541 0.10971 28747 ft 483 kts 19°
2026-04-21 19:03 7.22687 0.12188 29088 ft 483 kts 19°
2026-04-21 19:03 7.25815 0.13399 29539 ft 481 kts 18°
2026-04-21 19:03 7.28927 0.14604 29978 ft 478 kts 18°
2026-04-21 19:03 7.32029 0.15805 30271 ft 477 kts 18°
2026-04-21 19:04 7.35134 0.17006 30497 ft 478 kts 18°
2026-04-21 19:04 7.38239 0.18208 30746 ft 479 kts 19°
2026-04-21 19:04 7.41353 0.19413 30995 ft 479 kts 19°
2026-04-21 19:04 7.44465 0.20618 31245 ft 479 kts 19°
2026-04-21 19:05 7.47575 0.21822 31493 ft 479 kts 19°
2026-04-21 19:05 7.50690 0.23029 31736 ft 479 kts 19°
2026-04-21 19:05 7.53765 0.24220 31980 ft 480 kts 19°
2026-04-21 19:05 7.56919 0.25442 32221 ft 480 kts 19°
2026-04-21 19:06 7.60031 0.26648 32471 ft 479 kts 19°
2026-04-21 19:06 7.63140 0.27853 32788 ft 477 kts 19°
2026-04-21 19:06 7.66236 0.29054 33029 ft 477 kts 19°
2026-04-21 19:06 7.69340 0.30257 33245 ft 478 kts 19°
2026-04-21 19:07 7.72445 0.31460 33476 ft 478 kts 19°
2026-04-21 19:07 7.75547 0.32664 33718 ft 478 kts 19°
2026-04-21 19:07 7.78650 0.33867 33924 ft 478 kts 19°
2026-04-21 19:07 7.81712 0.35055 34100 ft 478 kts 19°
2026-04-21 19:08 7.84819 0.36260 34269 ft 479 kts 19°
2026-04-21 19:08 7.87931 0.37468 34440 ft 479 kts 19°
2026-04-21 19:08 7.91039 0.38674 34629 ft 479 kts 19°
2026-04-21 19:08 7.94145 0.39880 34836 ft 478 kts 19°
2026-04-21 19:09 7.97251 0.41086 35023 ft 478 kts 19°
2026-04-21 19:09 8.00355 0.42292 35173 ft 478 kts 19°
2026-04-21 19:09 8.03463 0.43499 35365 ft 479 kts 19°
2026-04-21 19:09 8.06571 0.44706 35511 ft 479 kts 19°
2026-04-21 19:10 8.09681 0.45915 35671 ft 479 kts 19°
2026-04-21 19:10 8.12837 0.47140 35814 ft 480 kts 19°
2026-04-21 19:10 8.15907 0.48334 35977 ft 480 kts 19°
2026-04-21 19:10 8.19027 0.49547 36123 ft 480 kts 19°
2026-04-21 19:11 8.22185 0.50775 36263 ft 480 kts 19°
2026-04-21 19:11 8.25263 0.51971 36410 ft 480 kts 19°
2026-04-21 19:11 8.28382 0.53184 36554 ft 480 kts 19°
2026-04-21 19:11 8.31500 0.54397 36699 ft 481 kts 19°
2026-04-21 19:12 8.33610 0.55217 36784 ft 481 kts 19°
2026-04-21 19:12 8.40894 0.58051 36819 ft 483 kts 19°
2026-04-21 19:13 8.47151 0.60488 36821 ft 482 kts 19°
2026-04-21 19:13 8.53408 0.62924 36823 ft 482 kts 19°
2026-04-21 19:14 8.59663 0.65361 36825 ft 482 kts 19°
2026-04-21 19:14 8.65919 0.67799 36813 ft 482 kts 19°
2026-04-21 19:15 8.72176 0.70237 36819 ft 482 kts 19°
2026-04-21 19:15 8.78441 0.72680 36816 ft 484 kts 19°
2026-04-21 19:16 8.84729 0.75132 36808 ft 484 kts 19°
2026-04-21 19:16 8.91015 0.77585 36815 ft 484 kts 19°
2026-04-21 19:17 9.00451 0.81270 36810 ft 485 kts 19°
2026-04-21 19:17 9.06740 0.83726 36810 ft 485 kts 19°
2026-04-21 19:18 9.13032 0.86185 36805 ft 484 kts 19°
2026-04-21 19:18 9.19302 0.88637 36804 ft 483 kts 19°
2026-04-21 19:19 9.25567 0.91086 36799 ft 483 kts 19°
2026-04-21 19:19 9.31833 0.93537 36806 ft 483 kts 19°
2026-04-21 19:20 9.38099 0.95989 36807 ft 483 kts 19°
2026-04-21 19:20 9.44367 0.98444 36806 ft 483 kts 19°
2026-04-21 19:21 9.50679 1.00741 36843 ft 481 kts 14°
2026-04-21 19:21 9.57110 1.02588 36869 ft 480 kts 12°
2026-04-21 19:22 9.63553 1.04401 36907 ft 481 kts 13°
2026-04-21 19:22 9.69974 1.06284 36939 ft 481 kts 13°
2026-04-21 19:23 9.76393 1.08208 36939 ft 481 kts 13°
2026-04-21 19:23 9.82805 1.10139 36938 ft 481 kts 13°
2026-04-21 19:24 9.86010 1.11104 36800 ft 481 kts 13°
2026-04-21 19:24 9.89211 1.12067 36800 ft 480 kts 13°
2026-04-21 19:24 9.95619 1.13994 36797 ft 480 kts 13°
2026-04-21 19:25 10.02030 1.15921 36799 ft 481 kts 13°
2026-04-21 19:25 10.08452 1.17853 36796 ft 482 kts 13°
2026-04-21 19:26 10.14880 1.19787 36794 ft 482 kts 13°
2026-04-21 19:26 10.21265 1.21709 36803 ft 482 kts 13°
2026-04-21 19:27 10.27671 1.23640 36803 ft 478 kts 13°
2026-04-21 19:27 10.34045 1.25561 36802 ft 478 kts 13°
2026-04-21 19:28 10.40416 1.27480 36802 ft 478 kts 13°
2026-04-21 19:28 10.46793 1.29402 36799 ft 478 kts 13°
2026-04-21 19:29 10.52128 1.31012 36800 ft 478 kts 13°
2026-04-21 19:29 10.59539 1.33249 36793 ft 478 kts 13°
2026-04-21 19:30 10.64886 1.34863 36794 ft 479 kts 13°
2026-04-21 19:30 10.71267 1.36791 36795 ft 479 kts 13°
2026-04-21 19:31 10.77650 1.38719 36792 ft 479 kts 13°
2026-04-21 19:31 10.84037 1.40650 36791 ft 479 kts 13°
2026-04-21 19:32 10.90416 1.42580 36773 ft 478 kts 13°
2026-04-21 19:32 10.96749 1.44523 36770 ft 480 kts 15°
2026-04-21 19:33 11.02716 1.47641 36776 ft 487 kts 31°
2026-04-21 19:33 11.08253 1.51735 36775 ft 489 kts 33°
2026-04-21 19:34 11.13617 1.55925 36771 ft 489 kts 34°
2026-04-21 19:34 11.19016 1.60149 36769 ft 489 kts 33°
2026-04-21 19:35 11.27136 1.66447 36774 ft 489 kts 33°
2026-04-21 19:36 11.32557 1.70640 36761 ft 490 kts 33°
2026-04-21 19:36 11.37989 1.74844 36766 ft 491 kts 33°
2026-04-21 19:37 11.43427 1.79056 36769 ft 491 kts 33°
2026-04-21 19:37 11.48869 1.83274 36764 ft 491 kts 33°
2026-04-21 19:38 11.54303 1.87488 36766 ft 491 kts 33°
2026-04-21 19:38 11.59741 1.91707 36765 ft 491 kts 33°
2026-04-21 19:39 11.65172 1.95923 36763 ft 491 kts 33°
2026-04-21 19:39 11.70608 2.00144 36764 ft 492 kts 33°
2026-04-21 19:40 11.76064 2.04382 36764 ft 493 kts 33°
2026-04-21 19:40 11.81524 2.08627 36764 ft 493 kts 33°
2026-04-21 19:41 11.86986 2.12876 36764 ft 493 kts 33°
2026-04-21 19:41 11.92443 2.17123 36769 ft 493 kts 33°
2026-04-21 19:42 11.97901 2.21372 36773 ft 493 kts 33°
2026-04-21 19:42 12.03359 2.25624 36776 ft 493 kts 33°
2026-04-21 19:43 12.08821 2.29882 36773 ft 494 kts 33°
2026-04-21 19:43 12.14293 2.34148 36774 ft 495 kts 33°
2026-04-21 19:44 12.19762 2.38415 36779 ft 495 kts 33°
2026-04-21 19:44 12.25230 2.42684 36779 ft 495 kts 33°
2026-04-21 19:45 12.30702 2.46958 36777 ft 495 kts 33°
2026-04-21 19:45 12.36171 2.51233 36777 ft 495 kts 33°
2026-04-21 19:46 12.41637 2.55507 36781 ft 495 kts 32°
2026-04-21 19:46 12.47120 2.59795 36779 ft 496 kts 32°
2026-04-21 19:47 12.52604 2.64088 36782 ft 497 kts 32°
2026-04-21 19:47 12.58090 2.68385 36782 ft 496 kts 32°
2026-04-21 19:48 12.63573 2.72682 36783 ft 496 kts 32°
2026-04-21 19:48 12.69055 2.76981 36783 ft 496 kts 32°
2026-04-21 19:49 12.74534 2.81279 36782 ft 496 kts 32°
2026-04-21 19:49 12.80019 2.85584 36785 ft 498 kts 32°
2026-04-21 19:50 12.84590 2.89173 36784 ft 498 kts 32°
2026-04-21 19:50 12.91023 2.94228 36790 ft 498 kts 32°
2026-04-21 19:51 12.96523 2.98553 36788 ft 498 kts 32°
2026-04-21 19:51 13.02025 3.02882 36787 ft 498 kts 32°
2026-04-21 19:52 13.07527 3.07213 36790 ft 498 kts 32°
2026-04-21 19:52 13.13020 3.11540 36799 ft 498 kts 32°
2026-04-21 19:53 13.18526 3.15878 36792 ft 500 kts 32°
2026-04-21 19:53 13.24041 3.20226 36797 ft 500 kts 32°
2026-04-21 19:54 13.29553 3.24576 36796 ft 500 kts 32°
2026-04-21 19:54 13.35061 3.28925 36800 ft 500 kts 32°
2026-04-21 19:55 13.40537 3.33250 36800 ft 500 kts 32°
2026-04-21 19:55 13.46086 3.37637 36799 ft 500 kts 32°
2026-04-21 19:56 13.51563 3.41968 36805 ft 501 kts 32°
2026-04-21 19:56 13.57419 3.45698 36805 ft 491 kts 19°
2026-04-21 19:57 13.63619 3.48619 36800 ft 490 kts 18°
2026-04-21 19:57 13.69871 3.51407 36804 ft 490 kts 17°
2026-04-21 19:58 13.76125 3.54188 36807 ft 490 kts 17°
2026-04-21 19:58 13.82370 3.56986 36807 ft 490 kts 17°
2026-04-21 19:59 13.88622 3.59800 36803 ft 491 kts 17°
2026-04-21 19:59 13.94888 3.62624 36812 ft 492 kts 17°
2026-04-21 20:00 14.01157 3.65451 36812 ft 492 kts 17°
2026-04-21 20:00 14.07422 3.68277 36800 ft 492 kts 17°
2026-04-21 20:01 14.13693 3.71107 36800 ft 492 kts 17°
2026-04-21 20:01 14.19962 3.73938 36809 ft 492 kts 17°
2026-04-21 20:02 14.25180 3.76295 36806 ft 493 kts 17°
2026-04-21 20:02 14.32531 3.79618 36803 ft 494 kts 17°
2026-04-21 20:03 14.38825 3.82466 36800 ft 494 kts 17°
2026-04-21 20:03 14.45109 3.85311 36804 ft 494 kts 17°
2026-04-21 20:04 14.51398 3.88160 36802 ft 494 kts 17°
2026-04-21 20:04 14.57688 3.91011 36801 ft 494 kts 17°
2026-04-21 20:05 14.63977 3.93863 36799 ft 494 kts 17°
2026-04-21 20:05 14.70264 3.96716 36800 ft 494 kts 17°
2026-04-21 20:06 14.76554 3.99572 36805 ft 494 kts 17°
2026-04-21 20:06 14.82842 4.02430 36805 ft 494 kts 17°
2026-04-21 20:07 14.89124 4.05286 36813 ft 494 kts 17°
2026-04-21 20:07 14.94374 4.07618 36801 ft 491 kts 13°
2026-04-21 20:08 15.02012 4.09554 36803 ft 481 kts
2026-04-21 20:08 15.08600 4.10667 36805 ft 479 kts
2026-04-21 20:09 15.15197 4.11708 36802 ft 480 kts
2026-04-21 20:09 15.21797 4.12777 36805 ft 480 kts
2026-04-21 20:10 15.28389 4.13868 36812 ft 480 kts
2026-04-21 20:10 15.33884 4.14783 36813 ft 481 kts
2026-04-21 20:11 15.40504 4.15888 36815 ft 482 kts
2026-04-21 20:11 15.48189 4.17171 36816 ft 481 kts
2026-04-21 20:12 15.53733 4.18096 36814 ft 482 kts
2026-04-21 20:12 15.60351 4.19201 36835 ft 482 kts
2026-04-21 20:13 15.66963 4.20306 36820 ft 481 kts
2026-04-21 20:13 15.73581 4.21412 36819 ft 481 kts
2026-04-21 20:14 15.80192 4.22517 36815 ft 481 kts
2026-04-21 20:14 15.86761 4.23617 36814 ft 481 kts
2026-04-21 20:15 15.93374 4.24725 36818 ft 481 kts
2026-04-21 20:15 15.99985 4.25833 36817 ft 482 kts
2026-04-21 20:16 16.06614 4.26943 36813 ft 483 kts
2026-04-21 20:16 16.13242 4.28056 36812 ft 482 kts
2026-04-21 20:17 16.19868 4.29169 36819 ft 482 kts
2026-04-21 20:17 16.26498 4.30284 36822 ft 482 kts
2026-04-21 20:18 16.33129 4.31399 36828 ft 482 kts
2026-04-21 20:18 16.39753 4.32513 36819 ft 482 kts
2026-04-21 20:19 16.46375 4.33629 36829 ft 482 kts
2026-04-21 20:19 16.52996 4.34744 36815 ft 482 kts
2026-04-21 20:20 16.59621 4.35861 36829 ft 482 kts
2026-04-21 20:20 16.66248 4.36980 36852 ft 482 kts 359°
2026-04-21 20:21 16.72865 4.38098 36822 ft 482 kts 359°
2026-04-21 20:21 16.79485 4.39216 36823 ft 482 kts 359°
2026-04-21 20:22 16.86099 4.40334 36822 ft 482 kts 359°
2026-04-21 20:22 16.96028 4.42015 36825 ft 482 kts 359°
2026-04-21 20:23 17.02644 4.43135 36833 ft 482 kts 359°
2026-04-21 20:23 17.09199 4.44248 36827 ft 479 kts 359°
2026-04-21 20:24 17.15782 4.45365 36827 ft 479 kts 359°
2026-04-21 20:24 17.22366 4.46481 36827 ft 479 kts 359°
2026-04-21 20:25 17.28951 4.47599 36832 ft 479 kts 359°
2026-04-21 20:25 17.35534 4.48719 36855 ft 480 kts 358°
2026-04-21 20:26 17.42114 4.49840 36837 ft 478 kts 358°
2026-04-21 20:26 17.48685 4.50959 36838 ft 478 kts 358°
2026-04-21 20:27 17.55253 4.52077 36836 ft 478 kts 358°
2026-04-21 20:27 17.61823 4.53196 36840 ft 478 kts 358°
2026-04-21 20:28 17.68394 4.54317 36843 ft 478 kts 358°
2026-04-21 20:28 17.74956 4.55440 36846 ft 476 kts 358°
2026-04-21 20:29 17.81470 4.56556 36845 ft 474 kts 358°
2026-04-21 20:29 17.87978 4.57667 36852 ft 474 kts 358°
2026-04-21 20:30 17.94495 4.58779 36856 ft 475 kts 358°
2026-04-21 20:30 18.01018 4.59896 36859 ft 475 kts 358°
2026-04-21 20:31 18.07544 4.61015 36859 ft 475 kts 358°
2026-04-21 20:31 18.14068 4.62135 36862 ft 475 kts 358°
2026-04-21 20:32 18.20593 4.63255 36862 ft 475 kts 358°
2026-04-21 20:32 18.27120 4.64376 36862 ft 475 kts 358°
2026-04-21 20:33 18.33643 4.65498 36862 ft 475 kts 358°
2026-04-21 20:33 18.40173 4.66621 36873 ft 475 kts 358°
2026-04-21 20:34 18.46691 4.67744 36869 ft 474 kts 358°
2026-04-21 20:34 18.53201 4.68866 36870 ft 474 kts 358°
2026-04-21 20:35 18.59716 4.69989 36869 ft 474 kts 358°
2026-04-21 20:35 18.66229 4.71113 36870 ft 474 kts 358°
2026-04-21 20:36 18.72741 4.72237 36897 ft 474 kts 358°
2026-04-21 20:36 18.79263 4.73364 36866 ft 475 kts 358°
2026-04-21 20:37 18.85785 4.74492 36876 ft 475 kts 358°
2026-04-21 20:37 18.92315 4.75624 36881 ft 475 kts 358°
2026-04-21 20:38 18.98836 4.76754 36877 ft 475 kts 358°
2026-04-21 20:38 19.05361 4.77885 36878 ft 475 kts 358°
2026-04-21 20:39 19.11892 4.79016 36885 ft 477 kts 358°
2026-04-21 20:39 19.18457 4.80155 36882 ft 478 kts 358°
2026-04-21 20:40 19.25026 4.81298 36888 ft 478 kts 358°
2026-04-21 20:40 19.31600 4.82443 36894 ft 478 kts 358°
2026-04-21 20:41 19.38169 4.83587 36890 ft 478 kts 358°
2026-04-21 20:41 19.44740 4.84732 36893 ft 480 kts 358°
2026-04-21 20:42 19.51336 4.85880 36900 ft 480 kts 358°
2026-04-21 20:42 19.57933 4.87033 36901 ft 480 kts 358°
2026-04-21 20:43 19.64530 4.88186 36899 ft 481 kts 358°
2026-04-21 20:43 19.71128 4.89340 36902 ft 481 kts 358°
2026-04-21 20:44 19.77733 4.90495 36902 ft 482 kts 358°
2026-04-21 20:44 19.84359 4.91654 36907 ft 483 kts 358°
2026-04-21 20:45 19.90993 4.92817 36900 ft 483 kts 358°
2026-04-21 20:45 19.97625 4.93981 36909 ft 483 kts 358°
2026-04-21 20:46 20.04257 4.95145 36911 ft 483 kts 358°
2026-04-21 20:46 20.10896 4.96312 36913 ft 484 kts 358°
2026-04-21 20:47 20.17562 4.97482 36916 ft 486 kts 358°
2026-04-21 20:47 20.24241 4.98658 36918 ft 487 kts 358°
2026-04-21 20:48 20.30921 4.99836 36919 ft 486 kts 358°
2026-04-21 20:48 20.37596 5.01014 36919 ft 486 kts 358°
2026-04-21 20:49 20.44230 5.02185 36927 ft 486 kts 358°
2026-04-21 20:49 20.50907 5.03364 36928 ft 486 kts 358°
2026-04-21 20:50 20.57584 5.04544 36925 ft 486 kts 358°
2026-04-21 20:50 20.64266 5.05726 36930 ft 486 kts 358°
2026-04-21 20:51 20.70940 5.06909 36923 ft 486 kts 358°
2026-04-21 20:51 20.77618 5.08092 36928 ft 487 kts 358°
2026-04-21 20:52 20.84316 5.09279 36927 ft 488 kts 358°
2026-04-21 20:52 20.91021 5.10470 36928 ft 489 kts 358°
2026-04-21 20:53 20.97730 5.11664 36929 ft 488 kts 358°
2026-04-21 20:53 21.04435 5.12857 36930 ft 488 kts 358°
2026-04-21 20:54 21.11144 5.14051 36934 ft 490 kts 358°
2026-04-21 20:54 21.17892 5.15251 36933 ft 492 kts 358°
2026-04-21 20:55 21.23514 5.16255 36933 ft 493 kts 358°
2026-04-21 20:55 21.30274 5.17464 36933 ft 493 kts 358°
2026-04-21 20:56 21.37033 5.18673 36935 ft 492 kts 358°
2026-04-21 20:56 21.43795 5.19882 36936 ft 492 kts 358°
2026-04-21 20:57 21.50553 5.21092 36941 ft 493 kts 358°
2026-04-21 20:57 21.57312 5.22303 36941 ft 493 kts 358°
2026-04-21 20:58 21.64075 5.23517 36939 ft 493 kts 358°
2026-04-21 20:58 21.70837 5.24731 36948 ft 493 kts 358°
2026-04-21 20:59 21.77604 5.25946 36945 ft 494 kts 358°
2026-04-21 20:59 21.84390 5.27165 36944 ft 495 kts 358°
2026-04-21 21:00 21.91178 5.28388 36953 ft 495 kts 358°
2026-04-21 21:00 21.97974 5.29614 36952 ft 495 kts 358°
2026-04-21 21:01 22.04765 5.30839 36985 ft 495 kts 359°
2026-04-21 21:01 22.11563 5.32066 36947 ft 496 kts 359°
2026-04-21 21:02 22.18382 5.33298 36957 ft 497 kts 359°
2026-04-21 21:02 22.25214 5.34534 36973 ft 498 kts 359°
2026-04-21 21:03 22.32046 5.35773 36962 ft 498 kts 359°
2026-04-21 21:03 22.38884 5.37013 36980 ft 498 kts 359°
2026-04-21 21:04 22.45725 5.38254 36966 ft 499 kts 359°
2026-04-21 21:04 22.52579 5.39499 37028 ft 499 kts 359°
2026-04-21 21:05 22.59428 5.40744 37079 ft 499 kts 359°
2026-04-21 21:05 22.66275 5.41991 37139 ft 499 kts 359°
2026-04-21 21:06 22.73132 5.43241 37187 ft 500 kts 360°
2026-04-21 21:06 22.79984 5.44258 37188 ft 489 kts 351°
2026-04-21 21:07 22.83338 5.44140 37192 ft 478 kts 345°
2026-04-21 21:07 22.86637 5.43769 37183 ft 475 kts 342°
2026-04-21 21:07 22.93152 5.42730 37161 ft 472 kts 340°
2026-04-21 21:08 22.99637 5.41597 37116 ft 472 kts 340°
2026-04-21 21:08 23.06139 5.40494 37082 ft 473 kts 341°
2026-04-21 21:09 23.12657 5.39420 37041 ft 474 kts 341°
2026-04-21 21:09 23.19173 5.38355 37020 ft 474 kts 341°
2026-04-21 21:10 23.25694 5.37289 37020 ft 473 kts 341°
2026-04-21 21:10 23.32205 5.36221 37010 ft 473 kts 341°
2026-04-21 21:11 23.38722 5.35146 37018 ft 474 kts 342°
2026-04-21 21:11 23.45255 5.34071 37004 ft 475 kts 342°
2026-04-21 21:12 23.51788 5.32996 36965 ft 475 kts 343°
2026-04-21 21:12 23.58270 5.31930 36974 ft 474 kts 343°
2026-04-21 21:13 23.64785 5.30854 36971 ft 473 kts 342°
2026-04-21 21:13 23.71305 5.29775 36966 ft 475 kts 343°
2026-04-21 21:14 23.77837 5.28694 36968 ft 475 kts 343°
2026-04-21 21:14 23.84379 5.27612 36963 ft 475 kts 343°
2026-04-21 21:15 23.90921 5.26528 36968 ft 475 kts 343°
2026-04-21 21:15 23.97459 5.25444 36965 ft 475 kts 343°
2026-04-21 21:16 24.03993 5.24358 36965 ft 475 kts 344°
2026-04-21 21:16 24.10528 5.23273 36964 ft 475 kts 344°
2026-04-21 21:17 24.17065 5.22185 36962 ft 475 kts 344°
2026-04-21 21:17 24.23600 5.21097 36960 ft 475 kts 344°
2026-04-21 21:18 24.30137 5.20007 36989 ft 475 kts 344°
2026-04-21 21:18 24.36672 5.18916 36954 ft 475 kts 344°
2026-04-21 21:19 24.43209 5.17824 36935 ft 475 kts 344°
2026-04-21 21:19 24.49744 5.16731 36936 ft 475 kts 344°
2026-04-21 21:20 24.56271 5.15638 36930 ft 475 kts 344°
2026-04-21 21:20 24.62805 5.14543 36930 ft 475 kts 344°
2026-04-21 21:21 24.69336 5.13448 36920 ft 475 kts 344°
2026-04-21 21:21 24.75867 5.12351 36922 ft 475 kts 344°
2026-04-21 21:22 24.82394 5.11253 36922 ft 475 kts 344°
2026-04-21 21:22 24.88919 5.10155 36922 ft 475 kts 344°
2026-04-21 21:23 24.95452 5.09055 36920 ft 475 kts 344°
2026-04-21 21:23 25.01998 5.07950 36916 ft 476 kts 344°
2026-04-21 21:24 25.08546 5.06843 36906 ft 476 kts 344°
2026-04-21 21:24 25.15093 5.05736 36905 ft 476 kts 344°
2026-04-21 21:25 25.21600 5.04636 36898 ft 476 kts 344°
2026-04-21 21:25 25.28151 5.03526 36901 ft 477 kts 344°
2026-04-21 21:26 25.34723 5.02410 36900 ft 478 kts 344°
2026-04-21 21:26 25.41293 5.01296 36900 ft 478 kts 344°
2026-04-21 21:27 25.47865 5.00179 36903 ft 478 kts 344°
2026-04-21 21:27 25.54437 4.99061 36903 ft 478 kts 344°
2026-04-21 21:28 25.61010 4.97941 36897 ft 479 kts 344°
2026-04-21 21:29 25.70909 4.96251 36890 ft 480 kts 344°
2026-04-21 21:29 25.77503 4.95126 36891 ft 480 kts 344°
2026-04-21 21:30 25.84089 4.94002 36880 ft 478 kts 344°
2026-04-21 21:30 25.90656 4.92877 36877 ft 477 kts 344°
2026-04-21 21:31 25.97214 4.91753 36871 ft 477 kts 344°
2026-04-21 21:31 26.03769 4.90627 36869 ft 477 kts 344°
2026-04-21 21:32 26.10324 4.89501 36854 ft 476 kts 344°
2026-04-21 21:32 26.16876 4.88372 36855 ft 477 kts 345°
2026-04-21 21:33 26.23444 4.87241 36836 ft 476 kts 345°
2026-04-21 21:33 26.29979 4.86118 36834 ft 475 kts 344°
2026-04-21 21:34 26.36512 4.84989 36834 ft 475 kts 344°
2026-04-21 21:34 26.43040 4.83860 36821 ft 475 kts 345°
2026-04-21 21:35 26.49574 4.82730 36836 ft 475 kts 345°
2026-04-21 21:35 26.56102 4.81599 36821 ft 475 kts 345°
2026-04-21 21:36 26.62626 4.80468 36820 ft 474 kts 345°
2026-04-21 21:36 26.69149 4.79336 36815 ft 475 kts 345°
2026-04-21 21:37 26.75672 4.78203 36815 ft 475 kts 345°
2026-04-21 21:37 26.81095 4.77260 36817 ft 474 kts 345°
2026-04-21 21:38 26.87606 4.76127 36809 ft 472 kts 345°
2026-04-21 21:38 26.94098 4.74994 36809 ft 472 kts 345°
2026-04-21 21:39 27.00595 4.73859 36807 ft 472 kts 345°
2026-04-21 21:39 27.07083 4.72725 36804 ft 472 kts 345°
2026-04-21 21:40 27.13576 4.71589 36805 ft 472 kts 346°
2026-04-21 21:40 27.20070 4.70451 36800 ft 472 kts 346°
2026-04-21 21:41 27.26562 4.69313 36796 ft 472 kts 346°
2026-04-21 21:41 27.33051 4.68174 36800 ft 472 kts 346°
2026-04-21 21:42 27.39543 4.67032 36797 ft 472 kts 346°